Total_Precipitation_Accumulation
0.03 0.02 0.01 0.01 0.01 0.00 0.02 0.04 0.24 0.16 0.06 0.01 0.00 0.00 0.04 0.03 0.00 0.00 0.00 0.01 0.03 0.06 0.13 0.21 0.36 0.48 0.60 0.49 0.31 0.25 0.16 0.04 0.00 0.00 0.00 0.00 0.00 0.00 0.00 0.00 0.00 0.00 0.00 0.00
0.10 0.02 0.03 0.06 0.04 0.02 0.02 0.01 0.01 0.02 0.04 0.01 0.00 0.00 0.01 0.01 0.01 0.00 0.00 0.00 0.00 0.00 0.01 0.03 0.13 0.31 0.41 0.49 0.29 0.22 0.16 0.04 0.01 0.01 0.02 0.02 0.01 0.00 0.00 0.00 0.00 0.00 0.00 0.00
0.35 0.09 0.21 0.31 0.05 0.03 0.02 0.01 0.03 0.02 0.01 0.00 0.00 0.00 0.01 0.01 0.01 0.01 0.00 0.00 0.00 0.01 0.01 0.00 0.03 0.10 0.25 0.34 0.29 0.27 0.12 0.11 0.01 0.00 0.00 0.01 0.03 0.06 0.09 0.08 0.04 0.02 0.02 0.01
0.41 0.26 0.51 0.10 0.01 0.07 0.05 0.01 0.06 0.01 0.01 0.00 0.01 0.01 0.02 0.04 0.08 0.05 0.02 0.01 0.02 0.05 0.05 0.02 0.02 0.02 0.14 0.22 0.17 0.18 0.09 0.24 0.06 0.01 0.00 0.00 0.01 0.03 0.05 0.08 0.09 0.11 0.10 0.07
0.43 0.25 0.12 0.01 0.06 0.15 0.13 0.07 0.04 0.05 0.07 0.02 0.01 0.09 0.14 0.10 0.07 0.03 0.02 0.07 0.05 0.03 0.01 0.01 0.02 0.04 0.05 0.04 0.05 0.11 0.09 0.07 0.07 0.01 0.00 0.01 0.00 0.00 0.01 0.02 0.02 0.04 0.05 0.05
0.55 0.50 0.15 0.01 0.04 0.05 0.08 0.09 0.11 0.29 0.21 0.12 0.24 0.33 0.34 0.13 0.05 0.03 0.03 0.06 0.03 0.06 0.05 0.02 0.04 0.05 0.05 0.03 0.03 0.03 0.03 0.04 0.06 0.06 0.01 0.01 0.01 0.01 0.01 0.01 0.01 0.01 0.01 0.01
0.66 0.76 0.22 0.04 0.07 0.14 0.32 0.39 0.49 0.35 0.28 0.20 0.31 0.29 0.21 0.11 0.07 0.07 0.13 0.10 0.03 0.01 0.01 0.03 0.03 0.04 0.03 0.02 0.02 0.01 0.00 0.00 0.02 0.01 0.00 0.01 0.01 0.01 0.01 0.01 0.01 0.02 0.01 0.00
0.37 0.54 0.46 0.26 0.31 0.49 0.53 0.55 0.35 0.13 0.05 0.04 0.05 0.06 0.14 0.13 0.12 0.04 0.02 0.01 0.00 0.00 0.00 0.01 0.02 0.01 0.01 0.01 0.01 0.00 0.00 0.00 0.01 0.03 0.07 0.08 0.06 0.05 0.04 0.03 0.04 0.05 0.02 0.00
0.25 0.26 0.27 0.32 0.48 0.31 0.33 0.26 0.05 0.02 0.02 0.02 0.01 0.05 0.09 0.09 0.07 0.02 0.01 0.00 0.00 0.00 0.00 0.01 0.02 0.01 0.00 0.00 0.00 0.00 0.02 0.01 0.02 0.06 0.08 0.09 0.14 0.14 0.06 0.06 0.07 0.07 0.04 0.01
0.36 0.20 0.46 0.45 0.20 0.16 0.16 0.06 0.02 0.02 0.02 0.02 0.01 0.03 0.06 0.06 0.07 0.07 0.05 0.01 0.00 0.00 0.00 0.00 0.03 0.16 0.09 0.02 0.00 0.00 0.01 0.02 0.02 0.04 0.08 0.11 0.08 0.05 0.04 0.03 0.04 0.05 0.04 0.01
0.63 0.39 0.32 0.07 0.02 0.01 0.00 0.01 0.02 0.03 0.04 0.05 0.03 0.03 0.05 0.07 0.20 0.25 0.23 0.11 0.01 0.00 0.00 0.00 0.00 0.05 0.36 0.23 0.02 0.01 0.03 0.05 0.05 0.01 0.03 0.05 0.03 0.02 0.01 0.01 0.00 0.01 0.00 0.00
0.45 0.15 0.25 0.05 0.00 0.00 0.01 0.02 0.01 0.01 0.05 0.04 0.01 0.01 0.05 0.08 0.23 0.26 0.23 0.13 0.04 0.00 0.00 0.00 0.00 0.00 0.05 0.32 0.10 0.05 0.06 0.04 0.02 0.01 0.02 0.01 0.02 0.03 0.01 0.00 0.00 0.00 0.00 0.00
0.23 0.12 0.10 0.06 0.00 0.00 0.02 0.01 0.00 0.01 0.12 0.27 0.29 0.07 0.01 0.06 0.17 0.23 0.06 0.04 0.01 0.01 0.00 0.00 0.01 0.01 0.00 0.04 0.06 0.04 0.02 0.00 0.00 0.00 0.01 0.01 0.01 0.00 0.02 0.04 0.03 0.01 0.00 0.00
0.15 0.23 0.11 0.01 0.00 0.00 0.00 0.00 0.00 0.00 0.01 0.05 0.15 0.21 0.13 0.08 0.13 0.19 0.14 0.04 0.02 0.01 0.01 0.01 0.01 0.04 0.02 0.01 0.00 0.00 0.00 0.00 0.00 0.00 0.00 0.00 0.00 0.00 0.00 0.01 0.05 0.05 0.03 0.01
0.06 0.06 0.02 0.00 0.00 0.00 0.00 0.00 0.00 0.00 0.00 0.00 0.00 0.02 0.07 0.11 0.06 0.10 0.15 0.19 0.08 0.06 0.06 0.06 0.06 0.08 0.07 0.02 0.01 0.00 0.00 0.00 0.00 0.00 0.00 0.00 0.00 0.00 0.00 0.00 0.00 0.00 0.01 0.02
0.00 0.00 0.00 0.00 0.00 0.01 0.00 0.00 0.00 0.00 0.00 0.00 0.01 0.02 0.01 0.02 0.04 0.04 0.04 0.25 0.25 0.11 0.10 0.14 0.15 0.12 0.10 0.04 0.01 0.00 0.00 0.00 0.00 0.00 0.01 0.01 0.01 0.01 0.00 0.00 0.00 0.01 0.00 0.00
0.05 0.06 0.07 0.01 0.02 0.02 0.02 0.03 0.05 0.04 0.02 0.01 0.03 0.05 0.05 0.02 0.02 0.03 0.04 0.08 0.28 0.27 0.24 0.21 0.19 0.16 0.11 0.04 0.00 0.00 0.00 0.00 0.00 0.00 0.00 0.00 0.00 0.00 0.00 0.00 0.00 0.00 0.01 0.01
0.09 0.16 0.15 0.08 0.06 0.06 0.03 0.01 0.01 0.01 0.01 0.01 0.01 0.05 0.10 0.02 0.01 0.01 0.01 0.01 0.11 0.19 0.18 0.12 0.12 0.13 0.07 0.03 0.00 0.00 0.00 0.00 0.00 0.00 0.00 0.00 0.00 0.00 0.00 0.00 0.00 0.00 0.02 0.02
0.04 0.09 0.11 0.09 0.07 0.06 0.02 0.00 0.00 0.01 0.04 0.07 0.08 0.08 0.05 0.03 0.03 0.06 0.08 0.08 0.08 0.13 0.11 0.12 0.10 0.07 0.05 0.03 0.01 0.00 0.00 0.00 0.00 0.00 0.00 0.00 0.00 0.00 0.00 0.00 0.01 0.01 0.02 0.03
0.00 0.00 0.00 0.01 0.01 0.00 0.01 0.00 0.00 0.02 0.04 0.05 0.08 0.10 0.10 0.13 0.13 0.17 0.25 0.17 0.10 0.05 0.03 0.01 0.02 0.03 0.03 0.02 0.01 0.00 0.00 0.00 0.00 0.00 0.00 0.00 0.00 0.01 0.01 0.00 0.01 0.02 0.04 0.05
0.00 0.00 0.00 0.00 0.02 0.02 0.01 0.01 0.01 0.01 0.00 0.00 0.01 0.01 0.05 0.10 0.14 0.19 0.22 0.26 0.27 0.07 0.01 0.00 0.00 0.00 0.00 0.00 0.00 0.00 0.00 0.00 0.00 0.00 0.00 0.00 0.00 0.01 0.01 0.01 0.02 0.03 0.05 0.07
0.00 0.00 0.00 0.00 0.01 0.04 0.11 0.06 0.01 0.00 0.00 0.00 0.00 0.01 0.00 0.01 0.01 0.03 0.08 0.17 0.24 0.20 0.10 0.03 0.00 0.00 0.00 0.00 0.00 0.00 0.00 0.00 0.00 0.00 0.00 0.01 0.01 0.02 0.02 0.02 0.03 0.05 0.07 0.09
0.00 0.00 0.00 0.00 0.00 0.01 0.11 0.12 0.01 0.00 0.00 0.00 0.00 0.00 0.00 0.00 0.00 0.00 0.01 0.02 0.02 0.04 0.06 0.05 0.01 0.00 0.02 0.01 0.01 0.01 0.00 0.00 0.00 0.00 0.01 0.01 0.03 0.03 0.03 0.03 0.04 0.05 0.05 0.05
0.00 0.00 0.00 0.00 0.00 0.00 0.00 0.00 0.00 0.00 0.00 0.00 0.00 0.00 0.00 0.00 0.00 0.00 0.00 0.00 0.01 0.01 0.01 0.01 0.00 0.00 0.01 0.02 0.02 0.01 0.01 0.01 0.01 0.01 0.02 0.02 0.04 0.04 0.05 0.03 0.03 0.03 0.03 0.03
0.00 0.00 0.00 0.00 0.00 0.00 0.00 0.00 0.00 0.00 0.00 0.00 0.00 0.00 0.01 0.00 0.01 0.00 0.00 0.00 0.01 0.01 0.01 0.00 0.00 0.00 0.00 0.00 0.01 0.01 0.01 0.01 0.01 0.02 0.03 0.03 0.03 0.04 0.04 0.03 0.02 0.02 0.02 0.02
0.00 0.00 0.00 0.00 0.00 0.00 0.01 0.01 0.01 0.00 0.01 0.00 0.00 0.00 0.01 0.01 0.01 0.01 0.00 0.00 0.00 0.00 0.00 0.01 0.00 0.00 0.00 0.00 0.00 0.01 0.01 0.01 0.02 0.03 0.02 0.03 0.02 0.02 0.02 0.03 0.02 0.02 0.02 0.01
0.00 0.00 0.00 0.00 0.00 0.01 0.03 0.02 0.02 0.01 0.01 0.03 0.03 0.01 0.02 0.02 0.01 0.01 0.01 0.01 0.01 0.00 0.00 0.00 0.00 0.00 0.00 0.00 0.01 0.01 0.02 0.02 0.02 0.01 0.01 0.01 0.01 0.01 0.01 0.01 0.01 0.02 0.01 0.01